Time,TemperatureF,DewpointF,PressureIn,WindDirection,WindDirectionDegrees,WindSpeedMPH,WindSpeedGustMPH,Humidity,HourlyPrecipIn,Conditions,Clouds,dailyrainin,SoftwareType,DateUTC
2013-01-01 00:00:00,22.9,12.2,30.11,North,0,0.0,3.0,63,0.00,,---,0.00,VWS V13.01,2013-01-01 08:00:00,
2013-01-01 00:30:00,22.4,11.7,30.10,North,0,0.0,1.0,63,0.00,,---,0.00,VWS V13.01,2013-01-01 08:30:00,
2013-01-01 01:00:00,22.3,12.3,30.09,North,0,0.0,0.0,65,0.00,,---,0.00,VWS V13.01,2013-01-01 09:00:00,
2013-01-01 01:30:00,22.7,13.4,30.11,North,0,0.0,3.0,67,0.00,,---,0.00,VWS V13.01,2013-01-01 09:30:00,
2013-01-01 02:01:00,22.8,14.1,30.13,North,0,0.0,2.0,69,0.00,,---,0.00,VWS V13.01,2013-01-01 10:01:00,
2013-01-01 02:30:00,23.0,14.4,30.13,North,0,0.0,2.0,69,0.00,,---,0.00,VWS V13.01,2013-01-01 10:30:00,
2013-01-01 03:00:00,23.0,14.7,30.11,North,0,0.0,2.0,70,0.00,,---,0.00,VWS V13.01,2013-01-01 11:00:00,
2013-01-01 03:30:00,23.2,15.5,30.10,North,0,1.0,3.0,72,0.00,,---,0.00,VWS V13.01,2013-01-01 11:30:00,
2013-01-01 04:00:00,23.6,16.2,30.10,North,0,0.0,3.0,73,0.00,,---,0.00,VWS V13.01,2013-01-01 12:00:00,
2013-01-01 04:30:00,24.1,16.7,30.10,North,0,0.0,2.0,73,0.00,,---,0.00,VWS V13.01,2013-01-01 12:30:00,
2013-01-01 05:00:00,23.5,15.8,30.10,North,0,0.0,3.0,72,0.00,,---,0.00,VWS V13.01,2013-01-01 13:00:00,
2013-01-01 05:30:00,23.6,16.2,30.10,North,0,0.0,3.0,73,0.00,,---,0.00,VWS V13.01,2013-01-01 13:30:00,
2013-01-01 06:00:00,22.1,14.1,30.11,North,0,0.0,2.0,71,0.00,,---,0.00,VWS V13.01,2013-01-01 14:00:00,
2013-01-01 06:30:00,22.9,15.6,30.11,North,0,0.0,3.0,73,0.00,,---,0.00,VWS V13.01,2013-01-01 14:30:00,
2013-01-01 07:00:00,24.5,16.8,30.13,North,0,0.0,3.0,72,0.00,,---,0.00,VWS V13.01,2013-01-01 15:00:00,
2013-01-01 07:30:00,25.1,17.0,30.12,North,0,1.0,2.0,71,0.00,,---,0.00,VWS V13.01,2013-01-01 15:30:00,
2013-01-01 08:00:00,25.4,16.7,30.14,North,0,0.0,2.0,69,0.00,,---,0.00,VWS V13.01,2013-01-01 16:00:00,
2013-01-01 08:30:00,27.0,17.9,30.14,North,0,1.0,3.0,68,0.00,,---,0.00,VWS V13.01,2013-01-01 16:30:00,
2013-01-01 09:00:00,28.8,18.9,30.15,North,0,0.0,3.0,66,0.00,,---,0.00,VWS V13.01,2013-01-01 17:00:00,
2013-01-01 09:30:00,30.9,19.4,30.15,North,0,4.0,6.0,62,0.00,,---,0.00,VWS V13.01,2013-01-01 17:30:00,
2013-01-01 09:45:00,27.7,18.4,30.15,North,0,1.0,6.0,66,0.00,,---,0.00,VWS V13.01,2013-01-01 17:45:00,
2013-01-01 11:00:00,36.9,20.9,30.14,NNE,16,0.0,5.0,52,0.00,,---,0.00,VWS V13.01,2013-01-01 19:00:00,
2013-01-01 11:30:00,41.3,22.1,30.14,NNE,16,0.0,3.0,46,0.00,,---,0.00,VWS V13.01,2013-01-01 19:30:00,
2013-01-01 12:01:00,44.9,17.6,30.12,NNE,14,6.0,10.0,33,0.00,,---,0.00,VWS V13.01,2013-01-01 20:01:00,
2013-01-01 12:30:00,47.1,13.1,30.10,North,4,4.0,15.0,25,0.00,,---,0.00,VWS V13.01,2013-01-01 20:30:00,
2013-01-01 13:00:00,47.7,12.7,30.09,North,5,11.0,17.0,24,0.00,,---,0.00,VWS V13.01,2013-01-01 21:00:00,
2013-01-01 13:30:00,48.9,12.8,30.09,NNE,19,4.0,18.0,23,0.00,,---,0.00,VWS V13.01,2013-01-01 21:30:00,
2013-01-01 14:00:00,49.0,12.8,30.09,NE,36,6.0,20.0,23,0.00,,---,0.00,VWS V13.01,2013-01-01 22:00:00,
2013-01-01 14:30:00,49.3,12.1,30.07,NNE,29,7.0,16.0,22,0.00,,---,0.00,VWS V13.01,2013-01-01 22:30:00,
2013-01-01 15:00:00,49.5,11.1,30.08,North,355,5.0,16.0,21,0.00,,---,0.00,VWS V13.01,2013-01-01 23:00:00,
2013-01-01 15:30:00,49.3,11.0,30.08,NNE,19,12.0,19.0,21,0.00,,---,0.00,VWS V13.01,2013-01-01 23:30:00,
2013-01-01 16:00:00,48.4,10.3,30.08,NNE,23,11.0,16.0,21,0.00,,---,0.00,VWS V13.01,2013-01-02 00:00:00,
2013-01-01 16:30:00,47.5,8.4,30.07,NNE,24,9.0,19.0,20,0.00,,---,0.00,VWS V13.01,2013-01-02 00:30:00,
2013-01-01 17:00:00,46.7,8.9,30.08,NNE,14,5.0,15.0,21,0.00,,---,0.00,VWS V13.01,2013-01-02 01:00:00,
2013-01-01 17:30:00,45.5,8.9,30.09,NNE,13,4.0,13.0,22,0.00,,---,0.00,VWS V13.01,2013-01-02 01:30:00,
2013-01-01 18:00:00,44.2,8.8,30.09,North,354,2.0,10.0,23,0.00,,---,0.00,VWS V13.01,2013-01-02 02:00:00,
2013-01-01 18:30:00,42.0,7.8,30.12,North,351,4.0,9.0,24,0.00,,---,0.00,VWS V13.01,2013-01-02 02:30:00,
2013-01-01 19:00:00,41.3,7.2,30.10,North,359,2.0,10.0,24,0.00,,---,0.00,VWS V13.01,2013-01-02 03:00:00,
2013-01-01 19:30:00,41.4,7.3,30.11,North,11,5.0,14.0,24,0.00,,---,0.00,VWS V13.01,2013-01-02 03:30:00,
2013-01-01 20:01:00,41.4,7.3,30.13,NNE,17,9.0,16.0,24,0.00,,---,0.00,VWS V13.01,2013-01-02 04:01:00,
2013-01-01 20:30:00,40.1,8.0,30.13,North,6,2.0,12.0,26,0.00,,---,0.00,VWS V13.01,2013-01-02 04:30:00,
2013-01-01 21:30:00,37.3,6.4,30.15,NNW,340,2.0,11.0,27,0.00,,---,0.00,VWS V13.01,2013-01-02 05:30:00,
2013-01-01 22:00:00,36.3,6.3,30.16,NW,320,4.0,7.0,28,0.00,,---,0.00,VWS V13.01,2013-01-02 06:00:00,
2013-01-01 22:30:00,36.8,6.8,30.16,NW,315,0.0,5.0,28,0.00,,---,0.00,VWS V13.01,2013-01-02 06:30:00,
2013-01-01 23:00:00,33.7,7.0,30.14,NW,315,0.0,2.0,32,0.00,,---,0.00,VWS V13.01,2013-01-02 07:00:00,
2013-01-01 23:30:00,32.8,6.9,30.17,WNW,282,1.0,4.0,33,0.00,,---,0.00,VWS V13.01,2013-01-02 07:30:00,